Location: Unspecified
(0.0000°N, 0.0000°E)
Time: 22:55:49
(UTC+00:00)

Courier 1B - Visible Passes

Search period start: 19 November 2019 00:00
Search period end: 29 November 2019 00:00
Orbit: 963 x 1209 km, 28.3° (Epoch: 17 November)

Date Brightness Start Highest point End Pass type
(mag) Time Alt. Az. Time Alt. Az. Time Alt. Az.
19 Nov 9.0 04:18:42 20° NNW 04:18:42 20° NNW 04:23:23 10° NNE visible
20 Nov 9.6 03:28:50 16° NNE 03:28:50 16° NNE 03:30:23 10° NNE visible
21 Nov 9.5 04:25:47 12° NNW 04:25:47 12° NNW 04:27:51 10° N visible
22 Nov 10.1 20:49:34 10° S 20:51:22 12° S 20:51:22 12° S visible
23 Nov 10.4 21:47:23 10° SSW 21:47:38 11° SSW 21:47:38 11° SSW visible
24 Nov 9.9 20:54:09 10° SSW 20:57:01 17° S 20:57:01 17° S visible
25 Nov 9.7 20:01:13 10° S 20:05:24 15° SSE 20:06:27 15° SSE visible
25 Nov 10.4 21:53:01 10° SW 21:53:20 11° SW 21:53:20 11° SW visible
26 Nov 10.0 19:09:04 10° S 19:11:05 11° SSE 19:13:07 10° SE visible
26 Nov 9.6 20:59:32 10° SW 21:02:45 23° SSW 21:02:45 23° SSW visible
27 Nov 9.2 20:06:14 10° SSW 20:12:14 25° SSE 20:12:14 25° SSE visible
27 Nov 10.5 21:59:06 10° SW 21:59:07 10° SW 21:59:07 10° SW visible
28 Nov 9.6 19:13:13 10° SSW 19:18:07 19° SSE 19:21:43 14° ESE visible
28 Nov 9.5 21:05:22 10° SW 21:08:37 27° SW 21:08:37 27° SW visible
